Flag for Tajikistan Weather past 2 weeks in Dushanbe, Tajikistan

Now
97 °F

Sunny.


Feels Like: 92 °F
Forecast: 66 / 96 °F
Wind: 6 mph from Southwest

Location: Dushanbe Airport

Current Time: Aug 22, 2014 at 2:59:42 PM

Latest Report: Aug 22, 2014 at 2:30 PM


Visibility: N/A

Pressure: 29.68 "Hg

Humidity: 10%

Dew point: 32 °F

Location of DushanbeLocation

Historic Weather in Dushanbe — Graph

°F

Dushanbe temperature yesterday

Maximum temperature yesterday: 97 °F (at 2:00 PM)
Minimum temperature yesterday: 64 °F (at 5:30 AM)
Average temperature yesterday: 81 °F

Past Weeks' High & Low Weather Summary

 TemperatureHumidityPressure
High99 °F (Aug 7, 2:00 PM)56% (Aug 8, 6:30 AM)29.95 "Hg (Aug 8, 6:30 AM)
Low61 °F (Aug 18, 6:00 AM)5% (Aug 7, 3:00 PM)29.59 "Hg (Aug 7, 3:30 PM)
Average81 °F27%29.78 "Hg
* Reported Aug 7 1:00 PM — Aug 22 1:30 PM, Dushanbe, Weather by CustomWeather, © 2014

Note: Actual official high and low records may vary slightly from our data, if they occured in-between our weather recording intervals... More about our weather records

Advertising

Dushanbe weather history for previous 24 hours

 ConditionsComfort  
Time TempWeatherWind HumidityBarometerVisibility
1:30 PM
Aug 22
95 °FSunny.6 mph10%29.71 "HgN/A
1:00 PM95 °FSunny.3 mph11%29.71 "HgN/A
12:30 PM95 °FSunny.3 mph10%29.74 "HgN/A
12:00 PM93 °FSunny.3 mph15%29.74 "HgN/A
11:30 AM91 °FSunny.1 mph16%29.74 "HgN/A
11:00 AM90 °FSunny.1 mph22%29.74 "HgN/A
10:30 AM88 °FSunny.1 mph22%29.77 "HgN/A
10:00 AM84 °FSunny.3 mph27%29.77 "HgN/A
9:30 AM82 °FSunny.1 mph30%29.77 "Hg6 mi
9:00 AM81 °FSunny.1 mph26%29.77 "Hg5 mi
8:30 AM75 °FSunny.1 mph31%29.77 "Hg4 mi
8:00 AM73 °FSunny.1 mph38%29.77 "Hg4 mi
7:30 AM73 °FSunny.No wind36%29.77 "HgN/A
7:00 AM64 °FSunny.1 mph56%29.77 "Hg6 mi
6:30 AM66 °FSunny.No wind46%29.77 "Hg6 mi
6:00 AM66 °FSunny.1 mph46%29.74 "HgN/A
5:30 AM63 °FClear.No wind52%29.74 "HgN/A
5:00 AM66 °FClear.1 mph46%29.74 "HgN/A
4:30 AM66 °FClear.No wind43%29.74 "HgN/A
4:00 AM66 °FClear.No wind40%29.74 "HgN/A
3:30 AM66 °FClear.No wind46%29.74 "HgN/A
3:00 AM68 °FClear.No wind40%29.74 "Hg5 mi
2:30 AM68 °FClear.1 mph40%29.74 "Hg5 mi
2:00 AM66 °FClear.1 mph46%29.74 "Hg4 mi
1:30 AM68 °FClear.No wind40%29.74 "Hg3 mi
1:00 AM68 °FClear.No wind40%29.74 "Hg3 mi
12:30 AM70 °FClear.1 mph38%29.74 "Hg4 mi
12:00 AM73 °FClear.1 mph31%29.74 "HgN/A
11:30 PM
Aug 21
72 °FClear.3 mph36%29.74 "Hg4 mi
11:00 PM72 °FClear.3 mph36%29.74 "Hg4 mi
10:30 PM72 °FClear.3 mph36%29.74 "Hg4 mi
10:00 PM79 °FClear.3 mph24%29.71 "HgN/A
9:30 PM77 °FClear.3 mph28%29.71 "HgN/A
9:00 PM79 °FClear.1 mph28%29.71 "Hg6 mi
8:30 PM82 °FClear.No wind25%29.71 "Hg6 mi
8:00 PM82 °FClear.3 mph25%29.71 "HgN/A
7:30 PM84 °FClear.3 mph22%29.71 "Hg5 mi
7:00 PM86 °FSunny.3 mph18%29.68 "HgN/A
6:30 PM90 °FSunny.6 mph15%29.68 "HgN/A
6:00 PM93 °FSunny.8 mph14%29.68 "HgN/A
5:30 PM95 °FSunny.8 mph11%29.68 "HgN/A
5:00 PM95 °FSunny.8 mph9%29.68 "HgN/A
4:30 PM97 °FSunny.8 mph9%29.71 "HgN/A
4:00 PM97 °FSunny.6 mph10%29.71 "HgN/A
3:30 PM97 °FSunny.6 mph11%29.71 "HgN/A
3:00 PM97 °FSunny.8 mph9%29.71 "HgN/A
2:30 PM97 °FSunny.6 mph11%29.74 "HgN/A
2:00 PM97 °FSunny.3 mph12%29.74 "HgN/A
Weather by CustomWeather, © 2014

See weather overviewHow to use our weather pages